User: anonymous   Login
Location: Ferma
(41.9500°N, 44.5167°E)
Time: 18:06:14
(UTC+00:00)
Language:

ARGOS - Orbit

View from above orbital plane
View from above orbital plane
View from above satellite
View from above satellite

Ground track
Ground track

The orbit data is extracted from the following two-line orbital elements,

1 25634U 99008A   22023.90608577 -.00000013  00000-0  13507-4 0  9992
2 25634  98.4032  45.5497 0010604  25.5707 334.5993 14.19414493186538
Epoch (UTC): 23 January 2022 21:44:45
Eccentricity: 0.0010604
inclination: 98.4032°
perigee height: 819 km
apogee height: 835 km
right ascension of ascending node: 45.5497°
argument of perigee: 25.5707°
revolutions per day: 14.19414493
mean anomaly at epoch: 334.5993°
orbit number at epoch: 18653

The dashed part of the orbit path shows where the satellite is in the earth's shadow,  

DLR